,,Stat5,,Stat1,,Stat2,,Stat3,,Stat4,,Wind1,,Wind1,
time,status,PA1M_AVG,status,PR1M_SUM,status,RH1M_AVG,status,SR1M_AVG,status,TA1M_AVG,status,W1dAve1m,status,W1sAve1m,
2001-02-09, 00:00:00,VALID,916.891,VALID,0,VALID,97.7749,VALID,-0.0679233,VALID,18.9177,VALID,96,VALID,0,
2001-02-09, 00:01:00,VALID,916.891,VALID,0,VALID,97.794,VALID,-0.0509425,VALID,18.9207,VALID,96,VALID,0,
2001-02-09, 00:02:00,VALID,916.907,VALID,0,VALID,97.8042,VALID,-0.0509425,VALID,18.944,VALID,96,VALID,0,
2001-02-09, 00:03:00,VALID,916.905,VALID,0,VALID,97.7966,VALID,-0.0849042,VALID,18.9599,VALID,96,VALID,0,
2001-02-09, 00:04:00,VALID,916.916,VALID,0,VALID,97.7521,VALID,-0.0509425,VALID,18.9664,VALID,96,VALID,0,
2001-02-09, 00:05:00,VALID,916.92,VALID,0,VALID,97.6961,VALID,-0.0339617,VALID,18.9567,VALID,96,VALID,0,
2001-02-09, 00:06:00,VALID,916.926,VALID,0,VALID,97.7266,VALID,-0.0679233,VALID,18.9535,VALID,94,VALID,0.278516,
2001-02-09, 00:07:00,VALID,916.918,VALID,0,VALID,97.7037,VALID,-4.62593e-018,VALID,18.9565,VALID,85,VALID,0.284745,
2001-02-09, 00:08:00,VALID,916.909,VALID,0,VALID,97.6643,VALID,0.0849042,VALID,18.965,VALID,87,VALID,0.0615234,
2001-02-09, 00:09:00,VALID,916.914,VALID,0,VALID,97.6567,VALID,0.0849042,VALID,18.9546,VALID,87,VALID,0,
2001-02-09, 00:10:00,VALID,916.917,VALID,0,VALID,97.6071,VALID,0.101885,VALID,18.964,VALID,87,VALID,0,
2001-02-09, 00:11:00,VALID,916.913,VALID,0,VALID,97.5689,VALID,0.101885,VALID,18.9739,VALID,87,VALID,0.0664063,
2001-02-09, 00:12:00,VALID,916.897,VALID,0,VALID,97.466,VALID,0.0679233,VALID,18.9772,VALID,87,VALID,0,
2001-02-09, 00:13:00,VALID,916.914,VALID,0,VALID,97.3362,VALID,0.0339617,VALID,18.9677,VALID,87,VALID,0,
2001-02-09, 00:14:00,VALID,916.903,VALID,0,VALID,97.2803,VALID,0.0849042,VALID,18.9739,VALID,87,VALID,0,
2001-02-09, 00:15:00,VALID,916.887,VALID,0,VALID,97.2676,VALID,0.0849042,VALID,18.9806,VALID,91,VALID,0,
2001-02-09, 00:16:00,VALID,916.864,VALID,0,VALID,97.1608,VALID,0.0679233,VALID,18.9973,VALID,94,VALID,0.4625,
2001-02-09, 00:17:00,VALID,916.862,VALID,0,VALID,97.0171,VALID,0.101885,VALID,19.0067,VALID,92,VALID,0.633984,
2001-02-09, 00:18:00,VALID,916.861,VALID,0,VALID,96.8479,VALID,0.101885,VALID,19.0226,VALID,97,VALID,0.51903,
2001-02-09, 00:19:00,VALID,916.858,VALID,0,VALID,96.8365,VALID,0.101885,VALID,19.0353,VALID,97,VALID,0.371505,
2001-02-09, 00:20:00,VALID,916.851,VALID,0,VALID,96.7945,VALID,0.101885,VALID,19.0321,VALID,91,VALID,0.432031,
2001-02-09, 00:21:00,VALID,916.841,VALID,0,VALID,96.7449,VALID,0.101885,VALID,19.0422,VALID,98,VALID,0.260352,
2001-02-09, 00:22:00,VALID,916.839,VALID,0,VALID,96.7144,VALID,0,VALID,19.0497,VALID,99,VALID,0.597356,
2001-02-09, 00:23:00,VALID,916.85,VALID,0,VALID,96.7437,VALID,0,VALID,19.0467,VALID,100,VALID,0.63014,
2001-02-09, 00:24:00,VALID,916.85,VALID,0,VALID,96.6318,VALID,0,VALID,19.0335,VALID,82,VALID,0.318945,
2001-02-09, 00:25:00,VALID,916.845,VALID,0,VALID,96.4474,VALID,0,VALID,19.0402,VALID,80,VALID,0.288477,
2001-02-09, 00:26:00,VALID,916.855,VALID,0,VALID,96.4805,VALID,-0.0339617,VALID,19.0499,VALID,88,VALID,0.371394,
2001-02-09, 00:27:00,VALID,916.846,VALID,0,VALID,96.4321,VALID,0,VALID,19.0663,VALID,100,VALID,0.42722,
2001-02-09, 00:28:00,VALID,916.853,VALID,0,VALID,96.5364,VALID,0,VALID,19.0693,VALID,109,VALID,0.108984,
2001-02-09, 00:29:00,VALID,916.833,VALID,0,VALID,96.5606,VALID,0,VALID,19.0753,VALID,109,VALID,0,
2001-02-09, 00:30:00,VALID,916.827,VALID,0,VALID,96.6445,VALID,0,VALID,19.0792,VALID,109,VALID,0,
2001-02-09, 00:31:00,VALID,916.815,VALID,0,VALID,96.7284,VALID,-0.0169808,VALID,19.0725,VALID,109,VALID,0,
2001-02-09, 00:32:00,VALID,916.805,VALID,0,VALID,96.8136,VALID,0,VALID,19.0854,VALID,109,VALID,0,
2001-02-09, 00:33:00,VALID,916.789,VALID,0,VALID,96.9802,VALID,-0.0169808,VALID,19.0949,VALID,115,VALID,0,
2001-02-09, 00:34:00,VALID,916.782,VALID,0,VALID,97.0794,VALID,-0.0169808,VALID,19.0817,VALID,117,VALID,0,
2001-02-09, 00:35:00,VALID,916.77,VALID,0,VALID,97.1417,VALID,-0.0339617,VALID,19.0822,VALID,117,VALID,0,
2001-02-09, 00:36:00,VALID,916.783,VALID,0,VALID,97.1531,VALID,-0.0339617,VALID,19.0728,VALID,117,VALID,0,
2001-02-09, 00:37:00,VALID,916.773,VALID,0,VALID,97.1455,VALID,0.0509425,VALID,19.0693,VALID,117,VALID,0,
2001-02-09, 00:38:00,VALID,916.78,VALID,0,VALID,97.2231,VALID,0.0849042,VALID,19.0653,VALID,117,VALID,0,
2001-02-09, 00:39:00,VALID,916.785,VALID,0,VALID,97.2803,VALID,0.0849042,VALID,19.0582,VALID,117,VALID,0,
2001-02-09, 00:40:00,VALID,916.777,VALID,0,VALID,97.2676,VALID,0.0679233,VALID,19.0582,VALID,117,VALID,0.0634766,
2001-02-09, 00:41:00,VALID,916.785,VALID,0,VALID,97.2816,VALID,0.0679233,VALID,19.0582,VALID,230,VALID,0.0289063,
2001-02-09, 00:42:00,VALID,916.774,VALID,0,VALID,97.2104,VALID,0.0849042,VALID,19.0455,VALID,276,VALID,0,
2001-02-09, 00:43:00,VALID,916.769,VALID,0,VALID,97.1671,VALID,0.0849042,VALID,19.0455,VALID,274,VALID,0,
2001-02-09, 00:44:00,VALID,916.761,VALID,0,VALID,97.1277,VALID,0.101885,VALID,19.0323,VALID,274,VALID,0,
2001-02-09, 00:45:00,VALID,916.741,VALID,0,VALID,97.143,VALID,0.101885,VALID,19.0323,VALID,254,VALID,0,
2001-02-09, 00:46:00,VALID,916.713,VALID,0,VALID,97.2053,VALID,0.0849042,VALID,19.0425,VALID,138,VALID,0.0647035,
2001-02-09, 00:47:00,VALID,916.701,VALID,0,VALID,97.1976,VALID,0.101885,VALID,19.0455,VALID,99,VALID,0.377467,
2001-02-09, 00:48:00,VALID,916.696,VALID,0,VALID,97.2765,VALID,0.0849042,VALID,19.0455,VALID,96,VALID,0.0216797,
2001-02-09, 00:49:00,VALID,916.669,VALID,0,VALID,97.3375,VALID,0.0679233,VALID,19.0487,VALID,96,VALID,0.193555,
2001-02-09, 00:50:00,VALID,916.676,VALID,0,VALID,97.3782,VALID,0.0509425,VALID,19.0485,VALID,96,VALID,0.282452,
2001-02-09, 00:51:00,VALID,916.653,VALID,0,VALID,97.4418,VALID,0.0509425,VALID,19.0455,VALID,98,VALID,0.47903,
2001-02-09, 00:52:00,VALID,916.641,VALID,0,VALID,97.4392,VALID,0.0509425,VALID,19.0397,VALID,108,VALID,0.484375,
2001-02-09, 00:53:00,VALID,916.633,VALID,0,VALID,97.2828,VALID,-0.0339617,VALID,19.0208,VALID,101,VALID,0.450195,
2001-02-09, 00:54:00,VALID,916.626,VALID,0,VALID,97.1163,VALID,-0.0169808,VALID,19.0174,VALID,112,VALID,0.0821314,
2001-02-09, 00:55:00,VALID,916.624,VALID,0,VALID,97.0323,VALID,-0.0169808,VALID,19.0208,VALID,123,VALID,0,
2001-02-09, 00:56:00,VALID,916.616,VALID,0,VALID,96.9662,VALID,0,VALID,19.0233,VALID,123,VALID,0,
2001-02-09, 00:57:00,VALID,916.613,VALID,0,VALID,96.895,VALID,0,VALID,19.0402,VALID,123,VALID,0,
2001-02-09, 00:58:00,VALID,916.589,VALID,0,VALID,96.8823,VALID,-0.0339617,VALID,19.0402,VALID,105,VALID,0,
2001-02-09, 00:59:00,VALID,916.587,VALID,0,VALID,96.8162,VALID,0,VALID,19.037,VALID,82,VALID,0,
2001-02-09, 01:00:00,VALID,916.575,VALID,0,VALID,96.5351,VALID,-0.0169808,VALID,19.0141,VALID,75,VALID,0,
2001-02-09, 01:01:00,VALID,916.563,VALID,0,VALID,96.3406,VALID,-0.0339617,VALID,19.0241,VALID,91,VALID,0,
2001-02-09, 01:02:00,VALID,916.547,VALID,0,VALID,96.2058,VALID,0,VALID,19.0497,VALID,99,VALID,0,
2001-02-09, 01:03:00,VALID,916.53,VALID,0,VALID,96.1422,VALID,-0.0339617,VALID,19.0596,VALID,83,VALID,0.508429,
2001-02-09, 01:04:00,VALID,916.519,VALID,0,VALID,96.0265,VALID,-0.0169808,VALID,19.069,VALID,94,VALID,0.706445,
2001-02-09, 01:05:00,VALID,916.499,VALID,0,VALID,95.9426,VALID,0,VALID,19.0785,VALID,72,VALID,0.474023,
2001-02-09, 01:06:00,VALID,916.502,VALID,0,VALID,95.8141,VALID,0,VALID,19.0857,VALID,89,VALID,0.686298,
2001-02-09, 01:07:00,VALID,916.498,VALID,0,VALID,95.7353,VALID,-0.0169808,VALID,19.0954,VALID,98,VALID,1.00329,
2001-02-09, 01:08:00,VALID,916.492,VALID,0,VALID,95.5585,VALID,0.0169808,VALID,19.0755,VALID,87,VALID,1.17695,
2001-02-09, 01:09:00,VALID,916.476,VALID,0,VALID,95.5407,VALID,0,VALID,19.0879,VALID,83,VALID,0.852344,
2001-02-09, 01:10:00,VALID,916.466,VALID,0,VALID,95.4721,VALID,-0.0169808,VALID,19.0946,VALID,89,VALID,0.813301,
2001-02-09, 01:11:00,VALID,916.455,VALID,0,VALID,95.481,VALID,0,VALID,19.0979,VALID,105,VALID,1.03824,
2001-02-09, 01:12:00,VALID,916.461,VALID,0,VALID,95.6119,VALID,0.0169808,VALID,19.0981,VALID,97,VALID,0.54082,
2001-02-09, 01:13:00,VALID,916.454,VALID,0,VALID,95.6704,VALID,0.0169808,VALID,19.0981,VALID,92,VALID,0.446484,
2001-02-09, 01:14:00,VALID,916.458,VALID,0,VALID,95.8357,VALID,0.0509425,VALID,19.0882,VALID,101,VALID,0.271034,
2001-02-09, 01:15:00,VALID,916.443,VALID,0,VALID,95.893,VALID,0.0169808,VALID,19.0817,VALID,108,VALID,0.639186,
2001-02-09, 01:16:00,VALID,916.441,VALID,0,VALID,95.9006,VALID,0.0169808,VALID,19.072,VALID,103,VALID,0.6375,
2001-02-09, 01:17:00,VALID,916.432,VALID,0,VALID,95.9057,VALID,0,VALID,19.0626,VALID,99,VALID,0.570117,
2001-02-09, 01:18:00,VALID,916.423,VALID,0,VALID,95.7887,VALID,0,VALID,19.043,VALID,83,VALID,0.173678,
2001-02-09, 01:19:00,VALID,916.403,VALID,0,VALID,95.762,VALID,0,VALID,19.0534,VALID,85,VALID,0.538446,
2001-02-09, 01:20:00,VALID,916.386,VALID,0,VALID,95.6933,VALID,0,VALID,19.04,VALID,96,VALID,0.527539,
2001-02-09, 01:21:00,VALID,916.392,VALID,0,VALID,95.7391,VALID,0.0169808,VALID,19.0531,VALID,99,VALID,0.0541016,
2001-02-09, 01:22:00,VALID,916.385,VALID,0,VALID,95.8548,VALID,0,VALID,19.0365,VALID,99,VALID,0.0456731,
2001-02-09, 01:23:00,VALID,916.363,VALID,0,VALID,95.8141,VALID,0.0169808,VALID,19.0501,VALID,97,VALID,0.309622,
2001-02-09, 01:24:00,VALID,916.353,VALID,0,VALID,95.7862,VALID,0,VALID,19.0402,VALID,97,VALID,0.00996094,
2001-02-09, 01:25:00,VALID,916.344,VALID,0,VALID,95.8828,VALID,0,VALID,19.0303,VALID,98,VALID,0.154883,
2001-02-09, 01:26:00,VALID,916.329,VALID,0,VALID,95.7556,VALID,-0.0169808,VALID,19.0273,VALID,69,VALID,0.649639,
2001-02-09, 01:27:00,VALID,916.325,VALID,0,VALID,95.4899,VALID,-0.0169808,VALID,19.0432,VALID,55,VALID,0.511308,
2001-02-09, 01:28:00,VALID,916.332,VALID,0,VALID,95.3131,VALID,0,VALID,19.0728,VALID,50,VALID,0.143359,
2001-02-09, 01:29:00,VALID,916.31,VALID,0,VALID,95.261,VALID,0,VALID,19.0762,VALID,51,VALID,0,
2001-02-09, 01:30:00,VALID,916.319,VALID,0,VALID,95.3106,VALID,0,VALID,19.0954,VALID,51,VALID,0.00120192,
2001-02-09, 01:31:00,VALID,916.295,VALID,0,VALID,95.5204,VALID,0,VALID,19.111,VALID,86,VALID,0.18935,
2001-02-09, 01:32:00,VALID,916.29,VALID,0,VALID,95.425,VALID,0,VALID,19.1016,VALID,90,VALID,0.730273,
2001-02-09, 01:33:00,VALID,916.277,VALID,0,VALID,95.5827,VALID,0,VALID,19.1016,VALID,94,VALID,0.447656,
2001-02-09, 01:34:00,VALID,916.285,VALID,0,VALID,95.7391,VALID,0,VALID,19.0787,VALID,90,VALID,0.382011,
2001-02-09, 01:35:00,VALID,916.27,VALID,0,VALID,95.8396,VALID,-0.0169808,VALID,19.0626,VALID,93,VALID,0.695518,
2001-02-09, 01:36:00,VALID,916.249,VALID,0,VALID,95.8879,VALID,-0.0169808,VALID,19.0499,VALID,102,VALID,0.686914,
2001-02-09, 01:37:00,VALID,916.231,VALID,0,VALID,95.8357,VALID,-0.0169808,VALID,19.0404,VALID,92,VALID,1.10254,
2001-02-09, 01:38:00,VALID,916.229,VALID,0,VALID,95.687,VALID,0,VALID,19.0464,VALID,89,VALID,1.10417,
2001-02-09, 01:39:00,VALID,916.214,VALID,0,VALID,95.6743,VALID,0.0169808,VALID,19.0434,VALID,103,VALID,0.85074,
2001-02-09, 01:40:00,VALID,916.223,VALID,0,VALID,95.7658,VALID,0,VALID,19.0335,VALID,112,VALID,0.467383,
2001-02-09, 01:41:00,VALID,916.218,VALID,0,VALID,95.8167,VALID,0,VALID,19.0432,VALID,102,VALID,0.0748047,
2001-02-09, 01:42:00,VALID,916.22,VALID,0,VALID,95.8497,VALID,0,VALID,19.0308,VALID,100,VALID,0,
2001-02-09, 01:43:00,VALID,916.212,VALID,0,VALID,95.9146,VALID,0,VALID,19.0273,VALID,100,VALID,0.215255,
2001-02-09, 01:44:00,VALID,916.196,VALID,0,VALID,95.9782,VALID,0,VALID,19.0236,VALID,100,VALID,0.0146484,
2001-02-09, 01:45:00,VALID,916.192,VALID,0,VALID,96.0952,VALID,0.0169808,VALID,19.0141,VALID,100,VALID,0.0869141,
2001-02-09, 01:46:00,VALID,916.181,VALID,0,VALID,96.291,VALID,0,VALID,19.0116,VALID,100,VALID,0,
2001-02-09, 01:47:00,VALID,916.175,VALID,0,VALID,96.4156,VALID,0,VALID,19.0014,VALID,100,VALID,0.236225,
2001-02-09, 01:48:00,VALID,916.15,VALID,0,VALID,96.5186,VALID,0,VALID,18.9823,VALID,100,VALID,0.192188,
2001-02-09, 01:49:00,VALID,916.138,VALID,0,VALID,96.6674,VALID,0,VALID,18.9562,VALID,98,VALID,0.365039,
2001-02-09, 01:50:00,VALID,916.122,VALID,0,VALID,96.7678,VALID,0,VALID,18.9366,VALID,81,VALID,0.250801,
2001-02-09, 01:51:00,VALID,916.103,VALID,0,VALID,96.8263,VALID,-0.0169808,VALID,18.9438,VALID,83,VALID,0.134252,
2001-02-09, 01:52:00,VALID,916.101,VALID,0,VALID,96.8581,VALID,0,VALID,18.9406,VALID,83,VALID,0.0464844,
2001-02-09, 01:53:00,VALID,916.078,VALID,0,VALID,96.9192,VALID,0,VALID,18.9433,VALID,90,VALID,0.201758,
2001-02-09, 01:54:00,VALID,916.073,VALID,0,VALID,96.9115,VALID,0,VALID,18.9435,VALID,93,VALID,0,
2001-02-09, 01:55:00,VALID,916.068,VALID,0,VALID,96.9077,VALID,0,VALID,18.9435,VALID,93,VALID,0,
2001-02-09, 01:56:00,VALID,916.058,VALID,0,VALID,96.9535,VALID,0,VALID,18.9567,VALID,102,VALID,0.550781,
2001-02-09, 01:57:00,VALID,916.041,VALID,0,VALID,96.9573,VALID,0,VALID,18.953,VALID,88,VALID,0.794922,
2001-02-09, 01:58:00,VALID,916.039,VALID,0,VALID,96.895,VALID,0,VALID,18.9398,VALID,96,VALID,0.602965,
2001-02-09, 01:59:00,VALID,916.039,VALID,0,VALID,96.8708,VALID,-0.0169808,VALID,18.9657,VALID,101,VALID,0.162212,
2001-02-09, 02:00:00,VALID,916.04,VALID,0,VALID,96.9103,VALID,0,VALID,18.9793,VALID,101,VALID,0.176172,
2001-02-09, 02:01:00,VALID,916.031,VALID,0,VALID,96.8327,VALID,0,VALID,18.9694,VALID,89,VALID,0.947852,
2001-02-09, 02:02:00,VALID,916.006,VALID,0,VALID,96.5987,VALID,-0.0169808,VALID,18.9823,VALID,96,VALID,0.975962,
2001-02-09, 02:03:00,VALID,915.998,VALID,0,VALID,96.5135,VALID,0.0169808,VALID,18.9989,VALID,89,VALID,0.574424,
2001-02-09, 02:04:00,VALID,915.991,VALID,0,VALID,96.4118,VALID,0,VALID,19.0047,VALID,91,VALID,0.116211,
2001-02-09, 02:05:00,VALID,915.999,VALID,0,VALID,96.2872,VALID,0,VALID,19.0049,VALID,92,VALID,0,
2001-02-09, 02:06:00,VALID,915.994,VALID,0,VALID,96.2668,VALID,0,VALID,19.0243,VALID,92,VALID,0.00120192,
2001-02-09, 02:07:00,VALID,915.993,VALID,0,VALID,96.305,VALID,0,VALID,19.0238,VALID,282,VALID,0.391859,
2001-02-09, 02:08:00,VALID,915.997,VALID,0,VALID,96.2655,VALID,-0.0169808,VALID,19.0139,VALID,275,VALID,0.343555,
2001-02-09, 02:09:00,VALID,916.006,VALID,0,VALID,96.305,VALID,0,VALID,19.0273,VALID,278,VALID,0.380273,
2001-02-09, 02:10:00,VALID,915.996,VALID,0,VALID,96.3024,VALID,0,VALID,19.0236,VALID,319,VALID,0.335537,
2001-02-09, 02:11:00,VALID,915.989,VALID,0,VALID,96.2821,VALID,-0.0169808,VALID,19.0137,VALID,356,VALID,0.362664,
2001-02-09, 02:12:00,VALID,915.98,VALID,0,VALID,96.3876,VALID,0,VALID,19.0271,VALID,354,VALID,0.0875,
2001-02-09, 02:13:00,VALID,915.964,VALID,0,VALID,96.4843,VALID,0,VALID,19.0271,VALID,354,VALID,0.198242,
2001-02-09, 02:14:00,VALID,915.955,VALID,0,VALID,96.5567,VALID,0,VALID,19.0303,VALID,82,VALID,0.345152,
2001-02-09, 02:15:00,VALID,915.944,VALID,0,VALID,96.6152,VALID,0.0169808,VALID,19.0335,VALID,119,VALID,0.429071,
2001-02-09, 02:16:00,VALID,915.915,VALID,0,VALID,96.7577,VALID,0,VALID,19.0432,VALID,118,VALID,0.0455078,
2001-02-09, 02:17:00,VALID,915.919,VALID,0,VALID,96.7195,VALID,-0.0169808,VALID,19.0365,VALID,96,VALID,0.760352,
2001-02-09, 02:18:00,VALID,915.914,VALID,0,VALID,96.7589,VALID,0,VALID,19.0271,VALID,91,VALID,0.611378,
2001-02-09, 02:19:00,VALID,915.904,VALID,0,VALID,96.806,VALID,0,VALID,19.0275,VALID,82,VALID,0.582854,
2001-02-09, 02:20:00,VALID,915.884,VALID,0,VALID,96.8479,VALID,0,VALID,18.9977,VALID,54,VALID,0.427344,
2001-02-09, 02:21:00,VALID,915.869,VALID,0,VALID,96.8416,VALID,0,VALID,18.9883,VALID,50,VALID,0.316992,
2001-02-09, 02:22:00,VALID,915.863,VALID,0,VALID,96.8759,VALID,0,VALID,18.9659,VALID,68,VALID,0.400441,
2001-02-09, 02:23:00,VALID,915.862,VALID,0,VALID,97.0476,VALID,-0.0339617,VALID,18.9788,VALID,95,VALID,0.899671,
2001-02-09, 02:24:00,VALID,915.844,VALID,0,VALID,97.1633,VALID,-0.0169808,VALID,18.9855,VALID,81,VALID,0.614062,
2001-02-09, 02:25:00,VALID,915.838,VALID,0,VALID,97.1519,VALID,0,VALID,18.9687,VALID,82,VALID,0.553516,
2001-02-09, 02:26:00,VALID,915.818,VALID,0,VALID,97.2409,VALID,0,VALID,18.9689,VALID,77,VALID,0.540465,
2001-02-09, 02:27:00,VALID,915.814,VALID,0,VALID,97.2027,VALID,0,VALID,18.9458,VALID,93,VALID,0.686266,
2001-02-09, 02:28:00,VALID,915.817,VALID,0,VALID,97.2803,VALID,0,VALID,18.9627,VALID,96,VALID,0.722461,
2001-02-09, 02:29:00,VALID,915.82,VALID,0,VALID,97.3718,VALID,0,VALID,18.9592,VALID,90,VALID,0.78418,
2001-02-09, 02:30:00,VALID,915.818,VALID,0,VALID,97.3413,VALID,0,VALID,18.9366,VALID,83,VALID,0.734575,
2001-02-09, 02:31:00,VALID,915.809,VALID,0,VALID,97.3515,VALID,0,VALID,18.9235,VALID,88,VALID,0.605674,
2001-02-09, 02:32:00,VALID,915.803,VALID,0,VALID,97.4392,VALID,0,VALID,18.9368,VALID,105,VALID,0.628906,
2001-02-09, 02:33:00,VALID,915.8,VALID,0,VALID,97.5194,VALID,0,VALID,18.9269,VALID,92,VALID,1.08008,
2001-02-09, 02:34:00,VALID,915.79,VALID,0,VALID,97.5893,VALID,0,VALID,18.9205,VALID,94,VALID,1.03826,
2001-02-09, 02:35:00,VALID,915.79,VALID,0,VALID,97.588,VALID,0,VALID,18.9138,VALID,54,VALID,0.949424,
2001-02-09, 02:36:00,VALID,915.762,VALID,0,VALID,97.588,VALID,0,VALID,18.8916,VALID,83,VALID,0.848047,
2001-02-09, 02:37:00,VALID,915.763,VALID,0,VALID,97.6427,VALID,-0.0509425,VALID,18.8822,VALID,83,VALID,0.636523,
2001-02-09, 02:38:00,VALID,915.756,VALID,0,VALID,97.6834,VALID,-0.118866,VALID,18.8836,VALID,81,VALID,0.408654,
2001-02-09, 02:39:00,VALID,915.745,VALID,0,VALID,97.7343,VALID,-0.101885,VALID,18.8806,VALID,96,VALID,0.491571,
2001-02-09, 02:40:00,VALID,915.726,VALID,0,VALID,97.7864,VALID,-0.0849042,VALID,18.8704,VALID,91,VALID,0.558008,
2001-02-09, 02:41:00,VALID,915.721,VALID,0,VALID,97.8538,VALID,-0.118866,VALID,18.8637,VALID,93,VALID,0.953906,
2001-02-09, 02:42:00,VALID,915.711,VALID,0,VALID,97.9085,VALID,-0.101885,VALID,18.8637,VALID,95,VALID,0.978766,
2001-02-09, 02:43:00,VALID,915.692,VALID,0,VALID,97.9746,VALID,-0.135847,VALID,18.8739,VALID,96,VALID,1.00308,
2001-02-09, 02:44:00,VALID,915.681,VALID,0,VALID,97.9987,VALID,-0.101885,VALID,18.8511,VALID,90,VALID,1.03145,
2001-02-09, 02:45:00,VALID,915.679,VALID,0,VALID,98.0318,VALID,-0.135847,VALID,18.8478,VALID,91,VALID,0.999609,
2001-02-09, 02:46:00,VALID,915.693,VALID,0,VALID,98.1005,VALID,-0.118866,VALID,18.8314,VALID,80,VALID,1.01122,
2001-02-09, 02:47:00,VALID,915.701,VALID,0,VALID,98.1017,VALID,-0.135847,VALID,18.8185,VALID,88,VALID,1.10855,
2001-02-09, 02:48:00,VALID,915.686,VALID,0,VALID,98.1615,VALID,-0.101885,VALID,18.8158,VALID,80,VALID,0.974805,
2001-02-09, 02:49:00,VALID,915.683,VALID,0,VALID,98.1946,VALID,-0.0679233,VALID,18.8091,VALID,64,VALID,0.624219,
2001-02-09, 02:50:00,VALID,915.663,VALID,0,VALID,98.2175,VALID,-0.101885,VALID,18.7927,VALID,62,VALID,0.385817,
2001-02-09, 02:51:00,VALID,915.651,VALID,0,VALID,98.2836,VALID,-0.101885,VALID,18.7994,VALID,84,VALID,0.685033,
2001-02-09, 02:52:00,VALID,915.641,VALID,0,VALID,98.3383,VALID,-0.0509425,VALID,18.7952,VALID,86,VALID,0.847852,
2001-02-09, 02:53:00,VALID,915.63,VALID,0,VALID,98.3739,VALID,0,VALID,18.8076,VALID,88,VALID,0.761719,
2001-02-09, 02:54:00,VALID,915.616,VALID,0,VALID,98.4209,VALID,0,VALID,18.8076,VALID,84,VALID,0.237179,
2001-02-09, 02:55:00,VALID,915.609,VALID,0,VALID,98.4336,VALID,0,VALID,18.7945,VALID,80,VALID,0,
2001-02-09, 02:56:00,VALID,915.602,VALID,0,VALID,98.4629,VALID,0,VALID,18.798,VALID,86,VALID,0.327539,
2001-02-09, 02:57:00,VALID,915.598,VALID,0,VALID,98.4934,VALID,0,VALID,18.8079,VALID,85,VALID,0.930859,
2001-02-09, 02:58:00,VALID,915.6,VALID,0,VALID,98.5239,VALID,0.0169808,VALID,18.8076,VALID,43,VALID,0.617989,
2001-02-09, 02:59:00,VALID,915.594,VALID,0,VALID,98.515,VALID,-0.0169808,VALID,18.7915,VALID,71,VALID,0.348067,
2001-02-09, 03:00:00,VALID,915.58,VALID,0,VALID,98.5544,VALID,-0.0169808,VALID,18.7883,VALID,102,VALID,0.334375,
2001-02-09, 03:01:00,VALID,915.577,VALID,0,VALID,98.5799,VALID,-0.0509425,VALID,18.7885,VALID,108,VALID,0.258008,
2001-02-09, 03:02:00,VALID,915.559,VALID,0,VALID,98.6117,VALID,-0.0339617,VALID,18.7947,VALID,97,VALID,0.450721,
2001-02-09, 03:03:00,VALID,915.55,VALID,0,VALID,98.618,VALID,-0.0169808,VALID,18.7952,VALID,60,VALID,0.537829,
2001-02-09, 03:04:00,VALID,915.542,VALID,0,VALID,98.6028,VALID,-0.0169808,VALID,18.7857,VALID,15,VALID,0.292383,
2001-02-09, 03:05:00,VALID,915.538,VALID,0,VALID,98.6155,VALID,0,VALID,18.7855,VALID,45,VALID,0,
2001-02-09, 03:06:00,VALID,915.516,VALID,0,VALID,98.6485,VALID,-0.0169808,VALID,18.7853,VALID,99,VALID,0.709535,
2001-02-09, 03:07:00,VALID,915.487,VALID,0,VALID,98.6689,VALID,-0.0169808,VALID,18.795,VALID,94,VALID,1.28084,
2001-02-09, 03:08:00,VALID,915.467,VALID,0,VALID,98.6803,VALID,-0.0169808,VALID,18.8049,VALID,91,VALID,0.780273,
2001-02-09, 03:09:00,VALID,915.449,VALID,0,VALID,98.6727,VALID,-0.0169808,VALID,18.7883,VALID,89,VALID,0.728125,
2001-02-09, 03:10:00,VALID,915.434,VALID,0,VALID,98.674,VALID,-0.0509425,VALID,18.7783,VALID,66,VALID,0.632212,
2001-02-09, 03:11:00,VALID,915.437,VALID,0,VALID,98.6867,VALID,-0.0169808,VALID,18.7746,VALID,339,VALID,0.387336,
2001-02-09, 03:12:00,VALID,915.422,VALID,0,VALID,98.7134,VALID,0,VALID,18.7883,VALID,326,VALID,0.0791016,
2001-02-09, 03:13:00,VALID,915.409,VALID,0,VALID,98.707,VALID,0,VALID,18.7682,VALID,99,VALID,0.683984,
2001-02-09, 03:14:00,VALID,915.383,VALID,0,VALID,98.7147,VALID,0,VALID,18.7684,VALID,101,VALID,0.860577,
2001-02-09, 03:15:00,VALID,915.37,VALID,0,VALID,98.7363,VALID,0.0169808,VALID,18.7714,VALID,98,VALID,0.519942,
2001-02-09, 03:16:00,VALID,915.363,VALID,0,VALID,98.7401,VALID,0,VALID,18.7982,VALID,93,VALID,0.311914,
2001-02-09, 03:17:00,VALID,915.36,VALID,0,VALID,98.7515,VALID,0,VALID,18.801,VALID,60,VALID,0.0751953,
2001-02-09, 03:18:00,VALID,915.365,VALID,0,VALID,98.7477,VALID,0,VALID,18.801,VALID,92,VALID,0.55609,
2001-02-09, 03:19:00,VALID,915.317,VALID,0,VALID,98.7693,VALID,0,VALID,18.8005,VALID,89,VALID,1.45107,
2001-02-09, 03:20:00,VALID,915.291,VALID,0,VALID,98.7274,VALID,0,VALID,18.7883,VALID,84,VALID,1.79062,
2001-02-09, 03:21:00,VALID,915.295,VALID,0,VALID,98.6981,VALID,0,VALID,18.7721,VALID,76,VALID,0.936328,
2001-02-09, 03:22:00,VALID,915.313,VALID,0,VALID,98.6841,VALID,0,VALID,18.7687,VALID,35,VALID,0.360577,
2001-02-09, 03:23:00,VALID,915.326,VALID,0,VALID,98.7019,VALID,-0.0169808,VALID,18.7592,VALID,291,VALID,0.535362,
2001-02-09, 03:24:00,VALID,915.338,VALID,0,VALID,98.7083,VALID,0,VALID,18.7617,VALID,326,VALID,0.55957,
2001-02-09, 03:25:00,VALID,915.335,VALID,0,VALID,98.7083,VALID,-0.0169808,VALID,18.7555,VALID,1,VALID,0.591602,
2001-02-09, 03:26:00,VALID,915.322,VALID,0,VALID,98.6854,VALID,0.0169808,VALID,18.7525,VALID,68,VALID,1.41206,
2001-02-09, 03:27:00,VALID,915.299,VALID,0,VALID,98.6613,VALID,-0.0169808,VALID,18.7497,VALID,77,VALID,1.22451,
2001-02-09, 03:28:00,VALID,915.298,VALID,0,VALID,98.6562,VALID,-0.0169808,VALID,18.753,VALID,82,VALID,1.04473,
2001-02-09, 03:29:00,VALID,915.295,VALID,0,VALID,98.6663,VALID,0,VALID,18.7652,VALID,69,VALID,0.868945,
2001-02-09, 03:30:00,VALID,915.291,VALID,0,VALID,98.6511,VALID,-0.0169808,VALID,18.7689,VALID,95,VALID,1.3724,
2001-02-09, 03:31:00,VALID,915.293,VALID,0,VALID,98.6511,VALID,0,VALID,18.7594,VALID,56,VALID,0.540707,
2001-02-09, 03:32:01,VALID,915.295,VALID,0,VALID,98.6231,VALID,0,VALID,18.7629,VALID,48,VALID,0.169727,
2001-02-09, 03:33:00,VALID,915.281,VALID,0,VALID,98.6218,VALID,-0.0339617,VALID,18.7493,VALID,330,VALID,0.126367,
2001-02-09, 03:34:00,VALID,915.29,VALID,0,VALID,98.6409,VALID,0,VALID,18.7657,VALID,280,VALID,0.0152244,
2001-02-09, 03:35:00,VALID,915.273,VALID,0,VALID,98.646,VALID,0,VALID,18.7818,VALID,245,VALID,0.179071,
2001-02-09, 03:36:00,VALID,915.248,VALID,0,VALID,98.6613,VALID,0.0169808,VALID,18.7783,VALID,100,VALID,1.29863,
2001-02-09, 03:37:00,VALID,915.207,VALID,0,VALID,98.6511,VALID,-0.0169808,VALID,18.7754,VALID,92,VALID,1.55859,
2001-02-09, 03:38:00,VALID,915.196,VALID,0,VALID,98.632,VALID,-0.0169808,VALID,18.7786,VALID,39,VALID,0.490785,
2001-02-09, 03:39:00,VALID,915.214,VALID,0,VALID,98.6282,VALID,0,VALID,18.7846,VALID,324,VALID,0.416118,